Time,TemperatureF,DewpointF,PressureIn,WindDirection,WindDirectionDegrees,WindSpeedMPH,WindSpeedGustMPH,Humidity,HourlyPrecipIn,Conditions,Clouds,dailyrainin,SoftwareType,DateUTC
2013-05-21 00:01:00,61.8,43.0,29.77,NE,42,7.0,8.0,50,0.00,,,0.00,Wunderground v.1.15,2013-05-21 07:01:00,
2013-05-21 00:02:00,61.9,43.0,29.77,NE,42,8.0,8.0,50,0.00,,,0.00,Wunderground v.1.15,2013-05-21 07:02:00,
2013-05-21 00:03:00,61.9,43.0,29.76,NE,42,7.0,8.0,50,0.00,,,0.00,Wunderground v.1.15,2013-05-21 07:03:00,
2013-05-21 00:04:00,62.0,42.6,29.76,NE,42,7.0,8.0,49,0.00,,,0.00,Wunderground v.1.15,2013-05-21 07:04:00,
2013-05-21 00:08:00,61.8,43.5,29.76,NE,42,3.0,8.0,51,0.00,,,0.00,Wunderground v.1.15,2013-05-21 07:08:00,
2013-05-21 00:10:00,61.6,43.3,29.76,NE,42,0.0,8.0,51,0.00,,,0.00,Wunderground v.1.15,2013-05-21 07:10:00,
2013-05-21 00:11:00,61.4,43.6,29.76,NE,42,1.0,8.0,52,0.00,,,0.00,Wunderground v.1.15,2013-05-21 07:11:00,
2013-05-21 00:15:00,60.8,43.1,29.76,NE,42,2.0,4.0,52,0.00,,,0.00,Wunderground v.1.15,2013-05-21 07:15:00,
2013-05-21 00:16:00,60.7,43.0,29.76,NE,42,3.0,4.0,52,0.00,,,0.00,Wunderground v.1.15,2013-05-21 07:16:00,
2013-05-21 00:18:00,60.7,43.0,29.76,NE,42,3.0,4.0,52,0.00,,,0.00,Wunderground v.1.15,2013-05-21 07:18:00,
2013-05-21 00:20:00,60.0,42.8,29.76,NE,42,3.0,4.0,53,0.00,,,0.00,Wunderground v.1.15,2013-05-21 07:20:00,
2013-05-21 00:21:00,60.0,42.8,29.76,NE,42,2.0,4.0,53,0.00,,,0.00,Wunderground v.1.15,2013-05-21 07:21:00,
2013-05-21 00:22:00,59.9,42.7,29.76,NE,42,3.0,3.0,53,0.00,,,0.00,Wunderground v.1.15,2013-05-21 07:22:00,
2013-05-21 00:23:00,59.9,42.7,29.75,NE,42,3.0,3.0,53,0.00,,,0.00,Wunderground v.1.15,2013-05-21 07:23:00,
2013-05-21 00:26:00,59.9,42.7,29.75,NE,42,7.0,7.0,53,0.00,,,0.00,Wunderground v.1.15,2013-05-21 07:26:00,
2013-05-21 00:28:00,60.2,43.0,29.75,NE,48,8.0,10.0,53,0.00,,,0.00,Wunderground v.1.15,2013-05-21 07:28:00,
2013-05-21 00:29:00,60.4,42.7,29.75,NE,49,10.0,10.0,52,0.00,,,0.00,Wunderground v.1.15,2013-05-21 07:29:00,
2013-05-21 00:32:00,61.1,42.8,29.75,NE,50,10.0,10.0,51,0.00,,,0.00,Wunderground v.1.15,2013-05-21 07:32:00,
2013-05-21 00:34:00,61.3,42.5,29.75,NE,51,8.0,10.0,50,0.00,,,0.00,Wunderground v.1.15,2013-05-21 07:34:00,
2013-05-21 00:36:00,61.4,42.6,29.75,NE,51,8.0,10.0,50,0.00,,,0.00,Wunderground v.1.15,2013-05-21 07:36:00,
2013-05-21 00:39:00,61.4,42.6,29.75,NE,51,7.0,10.0,50,0.00,,,0.00,Wunderground v.1.15,2013-05-21 07:39:00,
2013-05-21 00:40:00,61.5,42.7,29.75,NE,51,8.0,10.0,50,0.00,,,0.00,Wunderground v.1.15,2013-05-21 07:40:00,
2013-05-21 00:42:00,61.4,42.6,29.74,NE,51,8.0,9.0,50,0.00,,,0.00,Wunderground v.1.15,2013-05-21 07:42:00,
2013-05-21 00:44:00,61.3,43.0,29.74,NE,50,10.0,10.0,51,0.00,,,0.00,Wunderground v.1.15,2013-05-21 07:44:00,
2013-05-21 00:45:00,61.2,42.9,29.74,NE,50,10.0,10.0,51,0.00,,,0.00,Wunderground v.1.15,2013-05-21 07:45:00,
2013-05-21 00:46:00,61.1,42.8,29.74,NE,49,8.0,10.0,51,0.00,,,0.00,Wunderground v.1.15,2013-05-21 07:46:00,
2013-05-21 00:47:00,61.2,42.9,29.74,NE,49,8.0,10.0,51,0.00,,,0.00,Wunderground v.1.15,2013-05-21 07:47:00,
2013-05-21 00:49:00,61.1,42.8,29.74,NE,49,10.0,10.0,51,0.00,,,0.00,Wunderground v.1.15,2013-05-21 07:49:00,
2013-05-21 00:52:00,61.0,42.7,29.74,NE,49,8.0,9.0,51,0.00,,,0.00,Wunderground v.1.15,2013-05-21 07:52:00,
2013-05-21 00:54:00,60.9,43.1,29.74,NE,49,7.0,9.0,52,0.00,,,0.00,Wunderground v.1.15,2013-05-21 07:54:00,
2013-05-21 00:55:00,60.9,43.1,29.74,NE,49,8.0,9.0,52,0.00,,,0.00,Wunderground v.1.15,2013-05-21 07:55:00,
2013-05-21 00:56:00,60.9,43.1,29.74,NE,49,8.0,9.0,52,0.00,,,0.00,Wunderground v.1.15,2013-05-21 07:56:00,
2013-05-21 00:57:00,60.9,43.1,29.74,NE,49,7.0,9.0,52,0.00,,,0.00,Wunderground v.1.15,2013-05-21 07:57:00,
2013-05-21 01:01:00,61.0,43.2,29.74,NE,49,6.0,9.0,52,0.00,,,0.00,Wunderground v.1.15,2013-05-21 08:01:00,
2013-05-21 01:04:00,60.8,43.1,29.73,NE,49,8.0,8.0,52,0.00,,,0.00,Wunderground v.1.15,2013-05-21 08:04:00,
2013-05-21 01:06:00,60.9,43.1,29.73,NE,49,7.0,8.0,52,0.00,,,0.00,Wunderground v.1.15,2013-05-21 08:06:00,
2013-05-21 01:10:00,61.1,43.8,29.73,NE,53,5.0,8.0,53,0.00,,,0.00,Wunderground v.1.15,2013-05-21 08:10:00,
2013-05-21 01:11:00,61.1,44.3,29.73,NE,53,5.0,8.0,54,0.00,,,0.00,Wunderground v.1.15,2013-05-21 08:11:00,
2013-05-21 01:13:00,61.0,43.7,29.73,NE,53,4.0,6.0,53,0.00,,,0.00,Wunderground v.1.15,2013-05-21 08:13:00,
2013-05-21 01:14:00,60.9,43.6,29.73,NE,53,5.0,6.0,53,0.00,,,0.00,Wunderground v.1.15,2013-05-21 08:14:00,
2013-05-21 01:15:00,60.8,43.6,29.73,NE,53,5.0,6.0,53,0.00,,,0.00,Wunderground v.1.15,2013-05-21 08:15:00,
2013-05-21 01:17:00,60.7,43.5,29.73,NE,53,6.0,6.0,53,0.00,,,0.00,Wunderground v.1.15,2013-05-21 08:17:00,
2013-05-21 01:18:00,60.7,43.5,29.73,NE,53,5.0,6.0,53,0.00,,,0.00,Wunderground v.1.15,2013-05-21 08:18:00,
2013-05-21 01:23:00,60.7,43.5,29.73,NE,53,5.0,5.0,53,0.00,,,0.00,Wunderground v.1.15,2013-05-21 08:23:00,
2013-05-21 01:24:00,60.7,43.5,29.73,NE,53,4.0,5.0,53,0.00,,,0.00,Wunderground v.1.15,2013-05-21 08:24:00,
2013-05-21 01:25:00,60.7,43.5,29.72,NE,53,4.0,5.0,53,0.00,,,0.00,Wunderground v.1.15,2013-05-21 08:25:00,
2013-05-21 01:27:00,60.5,43.8,29.72,NE,53,5.0,5.0,54,0.00,,,0.00,Wunderground v.1.15,2013-05-21 08:27:00,
2013-05-21 01:29:00,60.3,43.6,29.72,NE,53,3.0,5.0,54,0.00,,,0.00,Wunderground v.1.15,2013-05-21 08:29:00,
2013-05-21 01:30:00,60.2,43.5,29.72,NE,53,4.0,5.0,54,0.00,,,0.00,Wunderground v.1.15,2013-05-21 08:30:00,
2013-05-21 01:32:00,60.1,43.4,29.72,NE,53,4.0,4.0,54,0.00,,,0.00,Wunderground v.1.15,2013-05-21 08:32:00,
2013-05-21 01:33:00,60.1,43.4,29.72,NE,53,4.0,4.0,54,0.00,,,0.00,Wunderground v.1.15,2013-05-21 08:33:00,
2013-05-21 01:36:00,60.2,43.5,29.72,NE,53,4.0,5.0,54,0.00,,,0.00,Wunderground v.1.15,2013-05-21 08:36:00,
2013-05-21 01:37:00,60.2,44.0,29.72,NE,53,2.0,5.0,55,0.00,,,0.00,Wunderground v.1.15,2013-05-21 08:37:00,
2013-05-21 01:38:00,60.2,44.0,29.72,NE,53,2.0,5.0,55,0.00,,,0.00,Wunderground v.1.15,2013-05-21 08:38:00,
2013-05-21 01:44:00,59.7,43.5,29.72,NE,53,4.0,4.0,55,0.00,,,0.00,Wunderground v.1.15,2013-05-21 08:44:00,
2013-05-21 01:45:00,59.7,43.5,29.72,NE,53,4.0,4.0,55,0.00,,,0.00,Wunderground v.1.15,2013-05-21 08:45:00,
2013-05-21 01:46:00,59.7,43.5,29.72,NE,53,4.0,4.0,55,0.00,,,0.00,Wunderground v.1.15,2013-05-21 08:46:00,
2013-05-21 01:47:00,59.8,43.6,29.72,NE,53,4.0,4.0,55,0.00,,,0.00,Wunderground v.1.15,2013-05-21 08:47:00,
2013-05-21 01:53:00,60.0,43.8,29.71,NE,53,4.0,4.0,55,0.00,,,0.00,Wunderground v.1.15,2013-05-21 08:53:00,
2013-05-21 01:58:00,60.2,44.0,29.71,NE,53,3.0,5.0,55,0.00,,,0.00,Wunderground v.1.15,2013-05-21 08:58:00,
2013-05-21 02:03:00,60.2,44.4,29.71,NE,53,0.0,3.0,56,0.00,,,0.00,Wunderground v.1.15,2013-05-21 09:03:00,
2013-05-21 02:08:00,59.6,44.3,29.71,NE,53,0.0,3.0,57,0.00,,,0.00,Wunderground v.1.15,2013-05-21 09:08:00,
2013-05-21 02:13:00,59.3,44.1,29.70,NE,53,0.0,0.0,57,0.00,,,0.00,Wunderground v.1.15,2013-05-21 09:13:00,
2013-05-21 02:18:00,59.2,44.0,29.70,NE,53,0.0,0.0,57,0.00,,,0.00,Wunderground v.1.15,2013-05-21 09:18:00,
2013-05-21 02:23:00,59.0,43.8,29.69,NE,53,0.0,0.0,57,0.00,,,0.00,Wunderground v.1.15,2013-05-21 09:23:00,
2013-05-21 02:28:00,58.9,43.7,29.69,NE,53,1.0,1.0,57,0.00,,,0.00,Wunderground v.1.15,2013-05-21 09:28:00,
2013-05-21 02:33:00,58.7,44.0,29.69,NE,53,1.0,1.0,58,0.00,,,0.00,Wunderground v.1.15,2013-05-21 09:33:00,
2013-05-21 02:38:00,58.5,44.2,29.69,NE,53,1.0,3.0,59,0.00,,,0.00,Wunderground v.1.15,2013-05-21 09:38:00,
2013-05-21 02:43:00,58.2,43.9,29.68,NE,53,0.0,1.0,59,0.00,,,0.00,Wunderground v.1.15,2013-05-21 09:43:00,
2013-05-21 02:48:00,57.9,44.5,29.68,NE,53,2.0,3.0,61,0.00,,,0.00,Wunderground v.1.15,2013-05-21 09:48:00,
2013-05-21 02:53:00,57.6,44.2,29.68,NE,53,3.0,4.0,61,0.00,,,0.00,Wunderground v.1.15,2013-05-21 09:53:00,
2013-05-21 02:58:00,57.5,44.6,29.68,NE,45,2.0,5.0,62,0.00,,,0.00,Wunderground v.1.15,2013-05-21 09:58:00,
2013-05-21 03:03:00,57.2,45.5,29.68,NE,45,2.0,3.0,65,0.00,,,0.00,Wunderground v.1.15,2013-05-21 10:03:00,
2013-05-21 03:08:00,56.7,45.1,29.68,NE,45,1.0,3.0,65,0.00,,,0.00,Wunderground v.1.15,2013-05-21 10:08:00,
2013-05-21 03:13:00,56.7,44.7,29.68,NE,45,3.0,4.0,64,0.00,,,0.00,Wunderground v.1.15,2013-05-21 10:13:00,
2013-05-21 03:18:00,56.5,45.3,29.68,North,5,5.0,6.0,66,0.00,,,0.00,Wunderground v.1.15,2013-05-21 10:18:00,
2013-05-21 03:23:00,56.3,45.1,29.68,NNW,334,6.0,6.0,66,0.00,,,0.00,Wunderground v.1.15,2013-05-21 10:23:00,
2013-05-21 03:28:00,56.5,45.3,29.67,NNW,334,0.0,6.0,66,0.00,,,0.00,Wunderground v.1.15,2013-05-21 10:28:00,
2013-05-21 03:33:00,56.4,45.6,29.67,NNW,334,2.0,2.0,67,0.00,,,0.00,Wunderground v.1.15,2013-05-21 10:33:00,
2013-05-21 03:38:00,56.7,45.5,29.66,NNW,334,3.0,4.0,66,0.00,,,0.00,Wunderground v.1.15,2013-05-21 10:38:00,
2013-05-21 03:43:00,57.2,45.1,29.66,NNW,334,2.0,3.0,64,0.00,,,0.00,Wunderground v.1.15,2013-05-21 10:43:00,
2013-05-21 03:48:00,57.4,45.7,29.66,NNW,334,3.0,5.0,65,0.00,,,0.00,Wunderground v.1.15,2013-05-21 10:48:00,
2013-05-21 03:53:00,58.0,44.6,29.65,NNW,334,3.0,5.0,61,0.00,,,0.00,Wunderground v.1.15,2013-05-21 10:53:00,
2013-05-21 03:58:00,58.7,44.8,29.64,NNW,334,4.0,6.0,60,0.00,,,0.00,Wunderground v.1.15,2013-05-21 10:58:00,
2013-05-21 04:03:00,59.3,44.5,29.64,North,360,8.0,8.0,58,0.00,,,0.00,Wunderground v.1.15,2013-05-21 11:03:00,
2013-05-21 04:08:00,59.6,43.9,29.64,North,360,4.0,8.0,56,0.00,,,0.00,Wunderground v.1.15,2013-05-21 11:08:00,
2013-05-21 04:13:00,60.4,44.6,29.64,North,360,2.0,5.0,56,0.00,,,0.00,Wunderground v.1.15,2013-05-21 11:13:00,
2013-05-21 04:18:00,60.4,44.2,29.63,North,360,2.0,5.0,55,0.00,,,0.00,Wunderground v.1.15,2013-05-21 11:18:00,
2013-05-21 04:23:00,60.6,44.3,29.63,North,360,0.0,2.0,55,0.00,,,0.00,Wunderground v.1.15,2013-05-21 11:23:00,
2013-05-21 04:28:00,60.0,45.2,29.63,NNW,333,5.0,8.0,58,0.00,,,0.00,Wunderground v.1.15,2013-05-21 11:28:00,
2013-05-21 04:33:00,59.1,46.5,29.63,West,265,7.0,12.0,63,0.00,,,0.00,Wunderground v.1.15,2013-05-21 11:33:00,
2013-05-21 04:38:00,58.2,44.8,29.63,West,269,3.0,12.0,61,0.00,,,0.00,Wunderground v.1.15,2013-05-21 11:38:00,
2013-05-21 04:43:00,57.5,46.2,29.64,SSE,148,5.0,7.0,66,0.00,,,0.00,Wunderground v.1.15,2013-05-21 11:43:00,
2013-05-21 04:48:00,56.0,46.0,29.64,South,179,6.0,12.0,69,0.00,,,0.00,Wunderground v.1.15,2013-05-21 11:48:00,
2013-05-21 04:53:00,55.8,46.2,29.64,SSW,198,5.0,9.0,70,0.00,,,0.00,Wunderground v.1.15,2013-05-21 11:53:00,
2013-05-21 04:58:00,55.5,45.9,29.63,SSW,192,4.0,9.0,70,0.00,,,0.00,Wunderground v.1.15,2013-05-21 11:58:00,
2013-05-21 05:03:00,55.6,45.2,29.63,SSW,207,4.0,8.0,68,0.00,,,0.00,Wunderground v.1.15,2013-05-21 12:03:00,
2013-05-21 05:08:00,56.5,44.9,29.63,SW,224,5.0,8.0,65,0.00,,,0.00,Wunderground v.1.15,2013-05-21 12:08:00,
2013-05-21 05:13:00,57.2,45.1,29.63,SW,224,4.0,5.0,64,0.00,,,0.00,Wunderground v.1.15,2013-05-21 12:13:00,
2013-05-21 05:18:00,57.4,45.3,29.63,SW,224,3.0,5.0,64,0.00,,,0.00,Wunderground v.1.15,2013-05-21 12:18:00,
2013-05-21 05:23:00,56.5,45.3,29.63,SW,224,3.0,4.0,66,0.00,,,0.00,Wunderground v.1.15,2013-05-21 12:23:00,
2013-05-21 05:28:00,55.1,45.9,29.63,WSW,256,2.0,7.0,71,0.00,,,0.00,Wunderground v.1.15,2013-05-21 12:28:00,
2013-05-21 05:33:00,54.3,46.2,29.63,WSW,256,5.0,5.0,74,0.00,,,0.00,Wunderground v.1.15,2013-05-21 12:33:00,
2013-05-21 05:38:00,53.9,46.2,29.63,WSW,256,3.0,5.0,75,0.00,,,0.00,Wunderground v.1.15,2013-05-21 12:38:00,
2013-05-21 05:43:00,53.6,46.2,29.63,WSW,256,3.0,4.0,76,0.00,,,0.00,Wunderground v.1.15,2013-05-21 12:43:00,
2013-05-21 05:48:00,53.5,46.1,29.62,WSW,256,2.0,4.0,76,0.00,,,0.00,Wunderground v.1.15,2013-05-21 12:48:00,
2013-05-21 05:53:00,53.6,45.9,29.62,West,259,3.0,5.0,75,0.00,,,0.00,Wunderground v.1.15,2013-05-21 12:53:00,
2013-05-21 05:58:00,53.9,46.2,29.62,West,259,4.0,5.0,75,0.00,,,0.00,Wunderground v.1.15,2013-05-21 12:58:00,
2013-05-21 06:03:00,54.2,45.7,29.62,West,259,2.0,4.0,73,0.00,,,0.00,Wunderground v.1.15,2013-05-21 13:03:00,
2013-05-21 06:08:00,54.5,45.7,29.61,West,259,3.0,5.0,72,0.00,,,0.00,Wunderground v.1.15,2013-05-21 13:08:00,
2013-05-21 06:13:00,55.1,45.5,29.61,West,259,2.0,3.0,70,0.00,,,0.00,Wunderground v.1.15,2013-05-21 13:13:00,
2013-05-21 06:18:00,55.6,45.6,29.61,West,259,1.0,3.0,69,0.00,,,0.00,Wunderground v.1.15,2013-05-21 13:18:00,
2013-05-21 06:23:00,56.0,45.6,29.61,West,259,0.0,1.0,68,0.00,,,0.00,Wunderground v.1.15,2013-05-21 13:23:00,
2013-05-21 06:28:00,56.3,45.9,29.60,West,259,1.0,1.0,68,0.00,,,0.00,Wunderground v.1.15,2013-05-21 13:28:00,
2013-05-21 06:33:00,56.5,45.7,29.61,West,259,2.0,2.0,67,0.00,,,0.00,Wunderground v.1.15,2013-05-21 13:33:00,
2013-05-21 06:38:00,56.6,45.0,29.61,West,259,3.0,6.0,65,0.00,,,0.00,Wunderground v.1.15,2013-05-21 13:38:00,
2013-05-21 06:43:00,56.6,45.4,29.60,West,259,2.0,5.0,66,0.00,,,0.00,Wunderground v.1.15,2013-05-21 13:43:00,
2013-05-21 06:48:00,56.6,45.4,29.60,West,259,2.0,5.0,66,0.00,,,0.00,Wunderground v.1.15,2013-05-21 13:48:00,
2013-05-21 06:53:00,56.6,45.4,29.60,West,259,2.0,3.0,66,0.00,,,0.00,Wunderground v.1.15,2013-05-21 13:53:00,
2013-05-21 06:58:00,56.7,45.5,29.60,West,259,2.0,4.0,66,0.00,,,0.00,Wunderground v.1.15,2013-05-21 13:58:00,
2013-05-21 07:03:00,56.8,46.3,29.60,West,259,2.0,5.0,68,0.00,,,0.00,Wunderground v.1.15,2013-05-21 14:03:00,
2013-05-21 07:08:00,56.8,46.7,29.60,West,259,2.0,6.0,69,0.00,,,0.00,Wunderground v.1.15,2013-05-21 14:08:00,
2013-05-21 07:13:00,57.2,47.1,29.60,West,259,2.0,4.0,69,0.00,,,0.00,Wunderground v.1.15,2013-05-21 14:13:00,
2013-05-21 07:18:00,57.8,47.3,29.60,West,259,3.0,6.0,68,0.00,,,0.00,Wunderground v.1.15,2013-05-21 14:18:00,
2013-05-21 07:23:00,58.4,45.8,29.60,West,259,3.0,4.0,63,0.00,,,0.00,Wunderground v.1.15,2013-05-21 14:23:00,
2013-05-21 07:28:00,58.8,45.4,29.60,West,259,2.0,4.0,61,0.00,,,0.00,Wunderground v.1.15,2013-05-21 14:28:00,
2013-05-21 07:33:00,59.2,45.3,29.60,West,259,2.0,3.0,60,0.00,,,0.00,Wunderground v.1.15,2013-05-21 14:33:00,
2013-05-21 07:38:00,59.4,45.5,29.60,West,259,0.0,3.0,60,0.00,,,0.00,Wunderground v.1.15,2013-05-21 14:38:00,
2013-05-21 07:43:00,59.7,44.9,29.60,West,259,2.0,2.0,58,0.00,,,0.00,Wunderground v.1.15,2013-05-21 14:43:00,
2013-05-21 07:48:00,59.8,45.0,29.60,West,259,1.0,4.0,58,0.00,,,0.00,Wunderground v.1.15,2013-05-21 14:48:00,
2013-05-21 07:53:00,59.9,46.0,29.60,West,259,3.0,4.0,60,0.00,,,0.00,Wunderground v.1.15,2013-05-21 14:53:00,
2013-05-21 07:58:00,59.8,45.4,29.60,West,259,5.0,6.0,59,0.00,,,0.00,Wunderground v.1.15,2013-05-21 14:58:00,
2013-05-21 08:03:00,59.6,45.7,29.60,West,259,2.0,3.0,60,0.00,,,0.00,Wunderground v.1.15,2013-05-21 15:03:00,
2013-05-21 08:08:00,59.8,48.0,29.60,West,259,0.0,3.0,65,0.00,,,0.00,Wunderground v.1.15,2013-05-21 15:08:00,
2013-05-21 08:13:00,59.8,48.8,29.59,West,259,0.0,1.0,67,0.00,,,0.00,Wunderground v.1.15,2013-05-21 15:13:00,
2013-05-21 08:18:00,60.0,47.4,29.59,West,259,0.0,1.0,63,0.00,,,0.00,Wunderground v.1.15,2013-05-21 15:18:00,
2013-05-21 08:23:00,60.4,46.9,29.59,West,259,0.0,0.0,61,0.00,,,0.00,Wunderground v.1.15,2013-05-21 15:23:00,
2013-05-21 08:28:00,61.0,46.6,29.59,West,259,3.0,6.0,59,0.00,,,0.00,Wunderground v.1.15,2013-05-21 15:28:00,
2013-05-21 08:33:00,61.4,46.0,29.59,West,259,6.0,8.0,57,0.00,,,0.00,Wunderground v.1.15,2013-05-21 15:33:00,
2013-05-21 08:38:00,61.6,45.7,29.59,West,259,7.0,8.0,56,0.00,,,0.00,Wunderground v.1.15,2013-05-21 15:38:00,
2013-05-21 08:43:00,61.6,46.2,29.59,West,259,4.0,6.0,57,0.00,,,0.00,Wunderground v.1.15,2013-05-21 15:43:00,
2013-05-21 08:48:00,62.0,44.7,29.59,NW,311,7.0,12.0,53,0.00,,,0.00,Wunderground v.1.15,2013-05-21 15:48:00,
2013-05-21 08:53:00,62.0,44.7,29.59,WNW,300,8.0,13.0,53,0.00,,,0.00,Wunderground v.1.15,2013-05-21 15:53:00,
2013-05-21 08:58:00,62.2,44.3,29.59,NW,304,7.0,13.0,52,0.00,,,0.00,Wunderground v.1.15,2013-05-21 15:58:00,
2013-05-21 09:03:00,62.3,43.4,29.59,WNW,288,7.0,12.0,50,0.00,,,0.00,Wunderground v.1.15,2013-05-21 16:03:00,
2013-05-21 09:08:00,62.3,44.4,29.59,WNW,295,8.0,12.0,52,0.00,,,0.00,Wunderground v.1.15,2013-05-21 16:08:00,
2013-05-21 09:13:00,62.2,44.3,29.59,NW,307,9.0,11.0,52,0.00,,,0.00,Wunderground v.1.15,2013-05-21 16:13:00,
2013-05-21 09:18:00,62.1,44.3,29.59,NW,304,8.0,11.0,52,0.00,,,0.00,Wunderground v.1.15,2013-05-21 16:18:00,
2013-05-21 09:23:00,62.0,44.2,29.59,NW,320,6.0,9.0,52,0.00,,,0.00,Wunderground v.1.15,2013-05-21 16:23:00,
2013-05-21 09:28:00,62.0,43.7,29.60,NW,319,4.0,9.0,51,0.00,,,0.00,Wunderground v.1.15,2013-05-21 16:28:00,
2013-05-21 09:33:00,62.0,43.1,29.59,NW,319,4.0,5.0,50,0.00,,,0.00,Wunderground v.1.15,2013-05-21 16:33:00,
2013-05-21 09:38:00,62.1,43.7,29.59,NW,319,4.0,6.0,51,0.00,,,0.00,Wunderground v.1.15,2013-05-21 16:38:00,
2013-05-21 09:43:00,62.3,43.9,29.58,NW,313,3.0,6.0,51,0.00,,,0.00,Wunderground v.1.15,2013-05-21 16:43:00,
2013-05-21 09:48:00,62.7,43.8,29.58,NW,313,4.0,8.0,50,0.00,,,0.00,Wunderground v.1.15,2013-05-21 16:48:00,
2013-05-21 09:53:00,62.8,43.9,29.58,NW,313,4.0,7.0,50,0.00,,,0.00,Wunderground v.1.15,2013-05-21 16:53:00,
2013-05-21 09:58:00,62.5,44.1,29.59,NW,306,7.0,9.0,51,0.00,,,0.00,Wunderground v.1.15,2013-05-21 16:58:00,
2013-05-21 10:03:00,62.2,43.8,29.59,WNW,295,6.0,8.0,51,0.00,,,0.00,Wunderground v.1.15,2013-05-21 17:03:00,
2013-05-21 10:08:00,62.0,43.7,29.59,WNW,290,4.0,9.0,51,0.00,,,0.00,Wunderground v.1.15,2013-05-21 17:08:00,
2013-05-21 10:13:00,61.9,43.6,29.59,WNW,289,5.0,10.0,51,0.00,,,0.00,Wunderground v.1.15,2013-05-21 17:13:00,
2013-05-21 10:18:00,61.6,44.8,29.60,West,273,5.0,10.0,54,0.00,,,0.00,Wunderground v.1.15,2013-05-21 17:18:00,
2013-05-21 10:23:00,61.6,44.3,29.60,WSW,249,8.0,11.0,53,0.00,,,0.00,Wunderground v.1.15,2013-05-21 17:23:00,
2013-05-21 10:28:00,61.4,44.6,29.60,WSW,248,7.0,11.0,54,0.00,,,0.00,Wunderground v.1.15,2013-05-21 17:28:00,
2013-05-21 10:33:00,61.2,45.4,29.60,WSW,246,7.0,9.0,56,0.00,,,0.00,Wunderground v.1.15,2013-05-21 17:33:00,
2013-05-21 10:38:00,61.0,44.2,29.60,WSW,244,5.0,12.0,54,0.00,,,0.00,Wunderground v.1.15,2013-05-21 17:38:00,
2013-05-21 10:43:00,61.1,45.3,29.60,WSW,247,9.0,10.0,56,0.00,,,0.00,Wunderground v.1.15,2013-05-21 17:43:00,
2013-05-21 10:48:00,61.1,46.2,29.60,WSW,244,7.0,10.0,58,0.00,,,0.00,Wunderground v.1.15,2013-05-21 17:48:00,
2013-05-21 10:53:00,61.0,46.6,29.60,SW,226,18.0,22.0,59,0.00,,,0.00,Wunderground v.1.15,2013-05-21 17:53:00,
2013-05-21 10:58:00,60.2,46.7,29.61,SW,222,15.0,22.0,61,0.00,,,0.00,Wunderground v.1.15,2013-05-21 17:58:00,
2013-05-21 11:03:00,59.6,48.6,29.61,SW,229,19.0,19.0,67,0.00,,,0.00,Wunderground v.1.15,2013-05-21 18:03:00,
2013-05-21 11:08:00,58.2,48.1,29.61,SW,224,16.0,22.0,69,0.00,,,0.00,Wunderground v.1.15,2013-05-21 18:08:00,
2013-05-21 11:13:00,57.9,48.9,29.61,SW,230,19.0,19.0,72,0.00,,,0.00,Wunderground v.1.15,2013-05-21 18:13:00,
2013-05-21 11:18:00,57.8,49.2,29.61,West,277,12.0,19.0,73,0.00,,,0.00,Wunderground v.1.15,2013-05-21 18:18:00,
2013-05-21 11:23:00,57.7,48.4,29.61,West,259,7.0,13.0,71,0.00,,,0.00,Wunderground v.1.15,2013-05-21 18:23:00,
2013-05-21 11:28:00,57.7,48.7,29.61,West,277,10.0,13.0,72,0.00,,,0.00,Wunderground v.1.15,2013-05-21 18:28:00,
2013-05-21 11:33:00,57.1,47.8,29.61,West,279,7.0,13.0,71,0.00,,,0.00,Wunderground v.1.15,2013-05-21 18:33:00,
2013-05-21 11:38:00,56.8,48.2,29.61,West,266,9.0,14.0,73,0.00,,,0.00,Wunderground v.1.15,2013-05-21 18:38:00,
2013-05-21 11:43:00,56.2,48.7,29.62,West,274,12.0,14.0,76,0.00,,,0.00,Wunderground v.1.15,2013-05-21 18:43:00,
2013-05-21 11:48:00,55.8,48.0,29.62,West,265,7.0,14.0,75,0.00,,,0.00,Wunderground v.1.15,2013-05-21 18:48:00,
2013-05-21 11:53:00,55.4,47.6,29.62,West,277,7.0,10.0,75,0.00,,,0.00,Wunderground v.1.15,2013-05-21 18:53:00,
2013-05-21 11:58:00,55.3,47.9,29.61,West,271,7.0,11.0,76,0.00,,,0.00,Wunderground v.1.15,2013-05-21 18:58:00,
2013-05-21 12:03:00,55.2,47.8,29.61,WNW,294,5.0,9.0,76,0.00,,,0.00,Wunderground v.1.15,2013-05-21 19:03:00,
2013-05-21 12:08:00,55.1,48.4,29.61,West,279,7.0,10.0,78,0.00,,,0.00,Wunderground v.1.15,2013-05-21 19:08:00,
2013-05-21 12:13:00,54.8,48.1,29.61,WNW,282,7.0,10.0,78,0.00,,,0.00,Wunderground v.1.15,2013-05-21 19:13:00,
2013-05-21 12:18:00,54.5,48.1,29.61,WNW,284,7.0,10.0,79,0.00,,,0.00,Wunderground v.1.15,2013-05-21 19:18:00,
2013-05-21 12:23:00,54.5,48.8,29.61,NW,322,3.0,8.0,81,0.00,,,0.00,Wunderground v.1.15,2013-05-21 19:23:00,
2013-05-21 12:28:00,54.3,48.6,29.61,WNW,290,7.0,12.0,81,0.00,,,0.00,Wunderground v.1.15,2013-05-21 19:28:00,
2013-05-21 12:33:00,54.1,49.1,29.61,WNW,288,10.0,14.0,83,0.00,,,0.00,Wunderground v.1.15,2013-05-21 19:33:00,
2013-05-21 12:38:00,53.6,47.9,29.61,WNW,287,7.0,16.0,81,0.00,,,0.01,Wunderground v.1.15,2013-05-21 19:38:00,
2013-05-21 12:43:00,53.4,48.0,29.61,WNW,292,7.0,12.0,82,0.08,,,0.02,Wunderground v.1.15,2013-05-21 19:43:00,
2013-05-21 12:48:00,53.2,48.5,29.62,WNW,286,13.0,14.0,84,0.08,,,0.02,Wunderground v.1.15,2013-05-21 19:48:00,
2013-05-21 12:53:00,52.8,48.4,29.63,WNW,290,13.0,15.0,85,0.07,,,0.03,Wunderground v.1.15,2013-05-21 19:53:00,
2013-05-21 12:58:00,52.6,48.2,29.63,WNW,293,5.0,15.0,85,0.11,,,0.04,Wunderground v.1.15,2013-05-21 19:58:00,
2013-05-21 13:03:00,52.2,47.8,29.64,WNW,295,6.0,9.0,85,0.20,,,0.05,Wunderground v.1.15,2013-05-21 20:03:00,
2013-05-21 13:08:00,52.2,47.8,29.64,WNW,282,9.0,11.0,85,0.16,,,0.07,Wunderground v.1.15,2013-05-21 20:08:00,
2013-05-21 13:13:00,52.1,48.0,29.64,WNW,282,8.0,9.0,86,0.19,,,0.09,Wunderground v.1.15,2013-05-21 20:13:00,
2013-05-21 13:19:00,51.9,47.5,29.64,West,272,3.0,9.0,85,0.17,,,0.10,Wunderground v.1.15,2013-05-21 20:19:00,
2013-05-21 13:24:00,51.9,47.5,29.65,West,272,2.0,4.0,85,0.07,,,0.10,Wunderground v.1.15,2013-05-21 20:24:00,
2013-05-21 13:29:00,52.0,47.6,29.65,West,272,0.0,4.0,85,0.05,,,0.11,Wunderground v.1.15,2013-05-21 20:29:00,
2013-05-21 13:34:00,51.9,47.5,29.65,West,272,0.0,1.0,85,0.11,,,0.12,Wunderground v.1.15,2013-05-21 20:34:00,
2013-05-21 13:39:00,51.8,46.8,29.65,West,272,1.0,3.0,83,0.09,,,0.12,Wunderground v.1.15,2013-05-21 20:39:00,
2013-05-21 13:44:00,51.5,45.9,29.63,NNE,31,9.0,9.0,81,0.05,,,0.12,Wunderground v.1.15,2013-05-21 20:44:00,
2013-05-21 13:49:00,51.7,46.4,29.64,NE,56,6.0,14.0,82,0.05,,,0.13,Wunderground v.1.15,2013-05-21 20:49:00,
2013-05-21 13:54:00,51.8,46.5,29.64,NE,44,6.0,12.0,82,0.05,,,0.13,Wunderground v.1.15,2013-05-21 20:54:00,
2013-05-21 13:59:00,51.9,46.9,29.64,NE,40,4.0,12.0,83,0.04,,,0.13,Wunderground v.1.15,2013-05-21 20:59:00,
2013-05-21 14:04:00,51.8,46.5,29.65,NE,40,4.0,6.0,82,0.00,,,0.13,Wunderground v.1.15,2013-05-21 21:04:00,
2013-05-21 14:09:00,52.1,47.1,29.65,NE,40,1.0,6.0,83,0.00,,,0.13,Wunderground v.1.15,2013-05-21 21:09:00,
2013-05-21 14:14:00,52.2,47.2,29.64,NE,40,1.0,3.0,83,0.00,,,0.13,Wunderground v.1.15,2013-05-21 21:14:00,
2013-05-21 14:19:00,52.3,47.3,29.63,NE,40,3.0,3.0,83,0.00,,,0.13,Wunderground v.1.15,2013-05-21 21:19:00,
2013-05-21 14:24:00,52.4,47.4,29.62,North,355,5.0,5.0,83,0.00,,,0.13,Wunderground v.1.15,2013-05-21 21:24:00,
2013-05-21 14:29:00,52.3,47.0,29.64,NW,304,7.0,8.0,82,0.00,,,0.13,Wunderground v.1.15,2013-05-21 21:29:00,
2013-05-21 14:34:00,52.3,47.3,29.63,WSW,239,12.0,12.0,83,0.00,,,0.13,Wunderground v.1.15,2013-05-21 21:34:00,
2013-05-21 14:39:00,52.4,47.4,29.64,SW,235,8.0,13.0,83,0.00,,,0.13,Wunderground v.1.15,2013-05-21 21:39:00,
2013-05-21 14:44:00,52.2,46.9,29.64,WSW,238,6.0,10.0,82,0.00,,,0.13,Wunderground v.1.15,2013-05-21 21:44:00,
2013-05-21 14:49:00,52.4,47.1,29.64,WSW,240,7.0,10.0,82,0.00,,,0.13,Wunderground v.1.15,2013-05-21 21:49:00,
2013-05-21 14:54:00,52.5,47.2,29.63,WSW,240,3.0,7.0,82,0.00,,,0.13,Wunderground v.1.15,2013-05-21 21:54:00,
2013-05-21 14:59:00,52.5,46.2,29.62,WSW,247,4.0,7.0,79,0.00,,,0.13,Wunderground v.1.15,2013-05-21 21:59:00,
2013-05-21 15:04:00,52.7,46.7,29.63,WSW,252,3.0,7.0,80,0.00,,,0.13,Wunderground v.1.15,2013-05-21 22:04:00,
2013-05-21 15:09:00,52.8,47.1,29.64,West,260,1.0,7.0,81,0.00,,,0.13,Wunderground v.1.15,2013-05-21 22:09:00,
2013-05-21 15:14:00,52.9,46.9,29.65,West,260,1.0,4.0,80,0.00,,,0.13,Wunderground v.1.15,2013-05-21 22:14:00,
2013-05-21 15:19:00,53.2,47.2,29.65,West,260,2.0,4.0,80,0.00,,,0.13,Wunderground v.1.15,2013-05-21 22:19:00,
2013-05-21 15:24:00,53.3,46.6,29.65,West,260,2.0,3.0,78,0.00,,,0.13,Wunderground v.1.15,2013-05-21 22:24:00,
2013-05-21 15:29:00,53.5,47.1,29.66,West,260,1.0,5.0,79,0.00,,,0.13,Wunderground v.1.15,2013-05-21 22:29:00,
2013-05-21 15:34:00,53.8,47.4,29.66,West,259,4.0,6.0,79,0.00,,,0.13,Wunderground v.1.15,2013-05-21 22:34:00,
2013-05-21 15:39:00,53.8,47.8,29.66,West,259,3.0,7.0,80,0.00,,,0.13,Wunderground v.1.15,2013-05-21 22:39:00,
2013-05-21 15:44:00,53.9,47.9,29.66,West,259,3.0,6.0,80,0.00,,,0.13,Wunderground v.1.15,2013-05-21 22:44:00,
2013-05-21 15:49:00,53.9,47.2,29.66,WSW,257,3.0,8.0,78,0.00,,,0.13,Wunderground v.1.15,2013-05-21 22:49:00,
2013-05-21 15:54:00,53.9,46.2,29.64,WSW,257,0.0,4.0,75,0.00,,,0.13,Wunderground v.1.15,2013-05-21 22:54:00,
2013-05-21 15:59:00,54.1,46.0,29.65,WSW,257,6.0,6.0,74,0.00,,,0.13,Wunderground v.1.15,2013-05-21 22:59:00,
2013-05-21 16:04:00,54.8,46.7,29.64,WSW,257,5.0,9.0,74,0.00,,,0.13,Wunderground v.1.15,2013-05-21 23:04:00,
2013-05-21 16:09:00,54.8,45.2,29.64,West,266,6.0,9.0,70,0.00,,,0.13,Wunderground v.1.15,2013-05-21 23:09:00,
2013-05-21 16:14:00,55.0,45.4,29.65,West,266,3.0,6.0,70,0.00,,,0.13,Wunderground v.1.15,2013-05-21 23:14:00,
2013-05-21 16:19:00,55.3,44.9,29.65,NW,323,6.0,13.0,68,0.00,,,0.13,Wunderground v.1.15,2013-05-21 23:19:00,
2013-05-21 16:24:00,55.4,44.2,29.64,NW,306,6.0,9.0,66,0.00,,,0.13,Wunderground v.1.15,2013-05-21 23:24:00,
2013-05-21 16:29:00,55.5,44.7,29.63,NW,306,3.0,9.0,67,0.00,,,0.13,Wunderground v.1.15,2013-05-21 23:29:00,
2013-05-21 16:34:00,56.0,44.8,29.64,NW,306,3.0,7.0,66,0.00,,,0.13,Wunderground v.1.15,2013-05-21 23:34:00,
2013-05-21 16:39:00,56.5,44.9,29.64,NW,306,1.0,7.0,65,0.00,,,0.13,Wunderground v.1.15,2013-05-21 23:39:00,
2013-05-21 16:44:00,56.9,45.7,29.64,NW,306,6.0,7.0,66,0.00,,,0.13,Wunderground v.1.15,2013-05-21 23:44:00,
2013-05-21 16:49:00,56.7,45.5,29.64,NNW,329,6.0,11.0,66,0.00,,,0.13,Wunderground v.1.15,2013-05-21 23:49:00,
2013-05-21 16:54:00,56.8,43.5,29.64,North,355,6.0,12.0,61,0.00,,,0.13,Wunderground v.1.15,2013-05-21 23:54:00,
2013-05-21 16:59:00,56.8,43.1,29.65,North,360,6.0,12.0,60,0.00,,,0.13,Wunderground v.1.15,2013-05-21 23:59:00,
2013-05-21 17:04:00,56.5,41.4,29.64,NNW,344,11.0,12.0,57,0.00,,,0.13,Wunderground v.1.15,2013-05-22 00:04:00,
2013-05-21 17:09:00,56.2,43.8,29.64,NNW,338,7.0,13.0,63,0.00,,,0.13,Wunderground v.1.15,2013-05-22 00:09:00,
2013-05-21 17:14:00,56.1,44.5,29.64,NW,326,9.0,11.0,65,0.00,,,0.13,Wunderground v.1.15,2013-05-22 00:14:00,
2013-05-21 17:19:00,56.1,44.5,29.64,NW,325,5.0,11.0,65,0.00,,,0.13,Wunderground v.1.15,2013-05-22 00:19:00,
2013-05-21 17:24:00,56.3,44.3,29.64,NNW,329,5.0,8.0,64,0.00,,,0.13,Wunderground v.1.15,2013-05-22 00:24:00,
2013-05-21 17:29:00,56.5,43.6,29.64,NNW,329,5.0,8.0,62,0.00,,,0.13,Wunderground v.1.15,2013-05-22 00:29:00,
2013-05-21 17:34:00,56.9,44.0,29.64,NNW,329,4.0,6.0,62,0.00,,,0.13,Wunderground v.1.15,2013-05-22 00:34:00,
2013-05-21 17:39:00,57.1,42.9,29.64,NNW,329,3.0,6.0,59,0.00,,,0.13,Wunderground v.1.15,2013-05-22 00:39:00,
2013-05-21 17:44:00,57.0,42.8,29.65,NNW,329,4.0,6.0,59,0.00,,,0.13,Wunderground v.1.15,2013-05-22 00:44:00,
2013-05-21 17:49:00,57.0,41.9,29.65,NNW,329,2.0,6.0,57,0.00,,,0.13,Wunderground v.1.15,2013-05-22 00:49:00,
2013-05-21 17:54:00,57.5,41.4,29.65,NNW,329,4.0,5.0,55,0.00,,,0.13,Wunderground v.1.15,2013-05-22 00:54:00,
2013-05-21 17:59:00,57.7,40.7,29.65,NNW,329,4.0,6.0,53,0.00,,,0.13,Wunderground v.1.15,2013-05-22 00:59:00,
2013-05-21 18:05:00,58.1,40.6,29.65,NNW,329,4.0,5.0,52,0.00,,,0.13,Wunderground v.1.15,2013-05-22 01:05:00,
2013-05-21 18:10:00,58.4,40.8,29.65,NNW,329,4.0,6.0,52,0.00,,,0.13,Wunderground v.1.15,2013-05-22 01:10:00,
2013-05-21 18:15:00,58.4,40.3,29.65,NNW,329,4.0,6.0,51,0.00,,,0.13,Wunderground v.1.15,2013-05-22 01:15:00,
2013-05-21 18:20:00,58.6,39.5,29.65,NNW,329,0.0,6.0,49,0.00,,,0.13,Wunderground v.1.15,2013-05-22 01:20:00,
2013-05-21 18:25:00,59.1,39.9,29.65,NNW,329,3.0,3.0,49,0.00,,,0.13,Wunderground v.1.15,2013-05-22 01:25:00,
2013-05-21 18:30:00,58.9,39.2,29.65,NNW,329,1.0,4.0,48,0.00,,,0.13,Wunderground v.1.15,2013-05-22 01:30:00,
2013-05-21 18:35:00,59.0,39.3,29.65,NNW,329,3.0,4.0,48,0.00,,,0.13,Wunderground v.1.15,2013-05-22 01:35:00,
2013-05-21 18:40:00,59.0,39.3,29.66,NNW,329,2.0,4.0,48,0.00,,,0.13,Wunderground v.1.15,2013-05-22 01:40:00,
2013-05-21 18:45:00,58.7,39.6,29.66,NNW,329,2.0,3.0,49,0.00,,,0.13,Wunderground v.1.15,2013-05-22 01:45:00,
2013-05-21 18:50:00,58.3,41.7,29.66,NW,320,3.0,6.0,54,0.00,,,0.13,Wunderground v.1.15,2013-05-22 01:50:00,
2013-05-21 18:55:00,57.7,40.2,29.66,NW,305,4.0,6.0,52,0.00,,,0.13,Wunderground v.1.15,2013-05-22 01:55:00,
2013-05-21 19:00:00,57.6,41.5,29.66,WNW,302,3.0,6.0,55,0.00,,,0.13,Wunderground v.1.15,2013-05-22 02:00:00,
2013-05-21 19:05:00,57.5,41.9,29.66,WNW,300,2.0,4.0,56,0.00,,,0.13,Wunderground v.1.15,2013-05-22 02:05:00,
2013-05-21 19:10:00,57.4,43.2,29.67,WNW,300,3.0,4.0,59,0.00,,,0.13,Wunderground v.1.15,2013-05-22 02:10:00,
2013-05-21 19:15:00,57.3,42.2,29.66,WNW,300,4.0,5.0,57,0.00,,,0.13,Wunderground v.1.15,2013-05-22 02:15:00,
2013-05-21 19:20:00,57.1,43.8,29.67,WNW,297,2.0,6.0,61,0.00,,,0.13,Wunderground v.1.15,2013-05-22 02:20:00,
2013-05-21 19:25:00,56.7,43.8,29.66,WNW,297,2.0,4.0,62,0.00,,,0.13,Wunderground v.1.15,2013-05-22 02:25:00,
2013-05-21 19:30:00,56.6,44.1,29.66,WNW,297,1.0,4.0,63,0.00,,,0.13,Wunderground v.1.15,2013-05-22 02:30:00,
2013-05-21 19:35:00,56.3,42.1,29.66,WNW,297,2.0,3.0,59,0.00,,,0.13,Wunderground v.1.15,2013-05-22 02:35:00,
2013-05-21 19:40:00,56.3,43.9,29.67,NW,311,4.0,5.0,63,0.00,,,0.13,Wunderground v.1.15,2013-05-22 02:40:00,
2013-05-21 19:45:00,56.0,44.8,29.66,NW,311,3.0,4.0,66,0.00,,,0.13,Wunderground v.1.15,2013-05-22 02:45:00,
2013-05-21 19:50:00,55.7,45.7,29.67,NW,311,3.0,4.0,69,0.00,,,0.13,Wunderground v.1.15,2013-05-22 02:50:00,
2013-05-21 19:55:00,55.2,46.0,29.67,NW,314,3.0,5.0,71,0.00,,,0.13,Wunderground v.1.15,2013-05-22 02:55:00,
2013-05-21 20:00:00,54.8,45.9,29.67,NNW,328,5.0,6.0,72,0.00,,,0.13,Wunderground v.1.15,2013-05-22 03:00:00,
2013-05-21 20:05:00,54.6,46.5,29.67,NNW,327,1.0,4.0,74,0.00,,,0.13,Wunderground v.1.15,2013-05-22 03:05:00,
2013-05-21 20:10:00,54.3,46.9,29.67,NNW,329,3.0,4.0,76,0.00,,,0.13,Wunderground v.1.15,2013-05-22 03:10:00,
2013-05-21 20:15:00,53.8,46.4,29.67,NNW,338,5.0,6.0,76,0.00,,,0.13,Wunderground v.1.15,2013-05-22 03:15:00,
2013-05-21 20:20:00,53.4,46.0,29.67,NNW,342,4.0,6.0,76,0.00,,,0.13,Wunderground v.1.15,2013-05-22 03:20:00,
2013-05-21 20:25:00,53.2,46.2,29.67,NNW,343,4.0,5.0,77,0.00,,,0.13,Wunderground v.1.15,2013-05-22 03:25:00,
2013-05-21 20:30:00,53.2,46.5,29.68,NNW,344,4.0,6.0,78,0.00,,,0.13,Wunderground v.1.15,2013-05-22 03:30:00,
2013-05-21 20:35:00,53.3,47.0,29.68,NNW,344,4.0,5.0,79,0.00,,,0.13,Wunderground v.1.15,2013-05-22 03:35:00,
2013-05-21 20:40:00,53.2,47.2,29.68,NNW,348,4.0,6.0,80,0.00,,,0.13,Wunderground v.1.15,2013-05-22 03:40:00,
2013-05-21 20:45:00,53.4,46.7,29.68,NE,36,6.0,8.0,78,0.00,,,0.13,Wunderground v.1.15,2013-05-22 03:45:00,
2013-05-21 20:50:00,53.6,46.6,29.68,NE,52,4.0,8.0,77,0.00,,,0.13,Wunderground v.1.15,2013-05-22 03:50:00,
2013-05-21 20:55:00,53.5,45.4,29.68,NE,52,3.0,7.0,74,0.00,,,0.13,Wunderground v.1.15,2013-05-22 03:55:00,
2013-05-21 21:00:00,53.3,46.3,29.68,ENE,57,5.0,8.0,77,0.00,,,0.13,Wunderground v.1.15,2013-05-22 04:00:00,
2013-05-21 21:01:00,53.3,46.3,29.68,ENE,57,6.0,8.0,77,0.00,,,0.13,Wunderground v.1.15,2013-05-22 04:01:00,
2013-05-21 21:06:00,53.0,46.0,29.68,NE,54,6.0,8.0,77,0.00,,,0.13,Wunderground v.1.15,2013-05-22 04:06:00,
2013-05-21 21:11:00,53.0,45.6,29.68,NE,54,6.0,8.0,76,0.00,,,0.13,Wunderground v.1.15,2013-05-22 04:11:00,
2013-05-21 21:16:00,53.0,46.0,29.69,NE,53,6.0,8.0,77,0.00,,,0.13,Wunderground v.1.15,2013-05-22 04:16:00,
2013-05-21 21:21:00,52.9,45.9,29.69,NE,53,6.0,8.0,77,0.00,,,0.13,Wunderground v.1.15,2013-05-22 04:21:00,
2013-05-21 21:26:00,52.6,45.9,29.69,NE,53,4.0,6.0,78,0.00,,,0.13,Wunderground v.1.15,2013-05-22 04:26:00,
2013-05-21 21:31:00,52.4,46.1,29.69,NE,53,4.0,6.0,79,0.00,,,0.13,Wunderground v.1.15,2013-05-22 04:31:00,
2013-05-21 21:36:00,52.1,45.8,29.69,NE,53,6.0,8.0,79,0.00,,,0.13,Wunderground v.1.15,2013-05-22 04:36:00,
2013-05-21 21:41:00,51.9,45.9,29.69,NE,50,7.0,8.0,80,0.00,,,0.13,Wunderground v.1.15,2013-05-22 04:41:00,
2013-05-21 21:46:00,51.9,45.9,29.69,NE,50,6.0,7.0,80,0.00,,,0.13,Wunderground v.1.15,2013-05-22 04:46:00,
2013-05-21 21:51:00,51.9,46.3,29.70,NE,50,2.0,7.0,81,0.00,,,0.13,Wunderground v.1.15,2013-05-22 04:51:00,
2013-05-21 21:56:00,51.4,46.1,29.69,NE,50,3.0,5.0,82,0.00,,,0.13,Wunderground v.1.15,2013-05-22 04:56:00,
2013-05-21 22:01:00,51.5,46.2,29.70,NE,51,5.0,6.0,82,0.00,,,0.13,Wunderground v.1.15,2013-05-22 05:01:00,
2013-05-21 22:06:00,51.6,46.6,29.70,NE,53,5.0,8.0,83,0.00,,,0.13,Wunderground v.1.15,2013-05-22 05:06:00,
2013-05-21 22:11:00,52.1,47.1,29.70,ENE,61,3.0,10.0,83,0.00,,,0.13,Wunderground v.1.15,2013-05-22 05:11:00,
2013-05-21 22:16:00,52.1,47.1,29.70,ENE,61,5.0,6.0,83,0.00,,,0.13,Wunderground v.1.15,2013-05-22 05:16:00,
2013-05-21 22:21:00,52.2,47.2,29.70,ENE,61,7.0,8.0,83,0.00,,,0.13,Wunderground v.1.15,2013-05-22 05:21:00,
2013-05-21 22:26:00,52.3,47.6,29.70,East,85,7.0,11.0,84,0.00,,,0.13,Wunderground v.1.15,2013-05-22 05:26:00,
2013-05-21 22:31:00,51.4,44.8,29.70,East,81,13.0,17.0,78,0.00,,,0.13,Wunderground v.1.15,2013-05-22 05:31:00,
2013-05-21 22:36:00,50.6,42.6,29.70,NNE,30,10.0,19.0,74,0.00,,,0.13,Wunderground v.1.15,2013-05-22 05:36:00,
2013-05-21 22:41:00,50.1,42.8,29.70,East,84,10.0,19.0,76,0.00,,,0.13,Wunderground v.1.15,2013-05-22 05:41:00,
2013-05-21 22:46:00,50.5,41.8,29.70,NE,39,13.0,18.0,72,0.00,,,0.13,Wunderground v.1.15,2013-05-22 05:46:00,
2013-05-21 22:51:00,49.8,42.2,29.70,NE,49,8.0,18.0,75,0.00,,,0.13,Wunderground v.1.15,2013-05-22 05:51:00,
2013-05-21 22:56:00,49.5,43.3,29.70,ENE,57,16.0,17.0,79,0.00,,,0.13,Wunderground v.1.15,2013-05-22 05:56:00,
2013-05-21 23:01:00,49.6,44.6,29.71,NE,52,8.0,21.0,83,0.00,,,0.13,Wunderground v.1.15,2013-05-22 06:01:00,
2013-05-21 23:06:00,49.8,45.2,29.71,NNE,17,10.0,17.0,84,0.00,,,0.13,Wunderground v.1.15,2013-05-22 06:06:00,
2013-05-21 23:11:00,49.8,44.8,29.71,ENE,60,10.0,17.0,83,0.00,,,0.13,Wunderground v.1.15,2013-05-22 06:11:00,
2013-05-21 23:16:00,49.6,45.0,29.71,NE,53,12.0,18.0,84,0.00,,,0.13,Wunderground v.1.15,2013-05-22 06:16:00,
2013-05-21 23:21:00,49.4,44.8,29.72,NE,50,16.0,18.0,84,0.00,,,0.13,Wunderground v.1.15,2013-05-22 06:21:00,
2013-05-21 23:26:00,48.3,43.7,29.72,ENE,60,12.0,19.0,84,0.00,,,0.14,Wunderground v.1.15,2013-05-22 06:26:00,
2013-05-21 23:31:00,47.5,42.3,29.72,NNE,26,14.0,20.0,82,0.00,,,0.14,Wunderground v.1.15,2013-05-22 06:31:00,
2013-05-21 23:36:00,46.8,41.3,29.72,NNE,27,18.0,20.0,81,0.00,,,0.14,Wunderground v.1.15,2013-05-22 06:36:00,
2013-05-21 23:41:00,46.4,40.6,29.72,NNE,30,17.0,20.0,80,0.00,,,0.14,Wunderground v.1.15,2013-05-22 06:41:00,
2013-05-21 23:46:00,46.3,40.5,29.73,NE,42,9.0,18.0,80,0.00,,,0.14,Wunderground v.1.15,2013-05-22 06:46:00,
2013-05-21 23:51:00,46.0,39.9,29.73,NNE,29,13.0,19.0,79,0.00,,,0.14,Wunderground v.1.15,2013-05-22 06:51:00,
2013-05-21 23:54:00,46.3,39.8,29.73,NNE,13,12.0,12.0,78,0.00,,,0.14,Wunderground v.1.15,2013-05-22 06:54:00,
2013-05-21 23:56:00,46.4,39.9,29.72,North,9,10.0,12.0,78,0.00,,,0.14,Wunderground v.1.15,2013-05-22 06:56:00,
2013-05-21 23:57:00,46.4,39.6,29.72,NNE,20,5.0,12.0,77,0.00,,,0.14,Wunderground v.1.15,2013-05-22 06:57:00,
2013-05-21 23:59:00,46.4,40.2,29.72,North,5,8.0,12.0,79,0.00,,,0.00,Wunderground v.1.15,2013-05-22 06:59:00,